TRA35A LSZH-LEBL

Flight info

Callsign TRA35A
Flight time N/A
Altitude 28000
Route VEBIT1D/10 VEBIT T50 ROTOS Z669 ULMES DCT VADAR DCT GEVEA DCT INCUS DCT BALSI DCT ETIDO DCT KURIR DCT PEQEF DCT NAKIS DCT BOLSA DCT PPG DCT ALBER
Aircraft B738/M-SDE2E3FGHIRWXY/LB1

Departure

Time 2026-04-30 13:41
Airport Zürich Airport (LSZH)

Arrival

Time N/A
Airport Josep Tarradellas Barcelona-El Prat Airport (LEBL)
Time Latitude Longitude Altitude Speed Heading
2026-04-30 13:07 47.46185 8.55106 1396 ft 0 kts 155°
2026-04-30 13:28 47.46189 8.55104 1407 ft 2 kts 156°
2026-04-30 13:28 47.46214 8.55097 1404 ft 2 kts 189°
2026-04-30 13:28 47.46227 8.55103 1399 ft 2 kts 211°
2026-04-30 13:29 47.46242 8.55133 1407 ft 2 kts 274°
2026-04-30 13:29 47.46241 8.55135 1407 ft 0 kts 277°
2026-04-30 13:32 47.46243 8.55116 1407 ft 7 kts 276°
2026-04-30 13:33 47.46186 8.54972 1397 ft 5 kts 159°
2026-04-30 13:33 47.46075 8.55047 1397 ft 15 kts 154°
2026-04-30 13:34 47.46002 8.55008 1396 ft 10 kts 253°
2026-04-30 13:34 47.46242 8.54789 1402 ft 11 kts 343°
2026-04-30 13:35 47.46298 8.54838 1395 ft 11 kts 73°
2026-04-30 13:35 47.46224 8.54944 1403 ft 11 kts 153°
2026-04-30 13:36 47.46207 8.54957 1403 ft 3 kts 153°
2026-04-30 13:36 47.46176 8.54978 1398 ft 7 kts 155°
2026-04-30 13:36 47.46054 8.55055 1398 ft 12 kts 173°
2026-04-30 13:37 47.45983 8.55029 1401 ft 10 kts 224°
2026-04-30 13:37 47.45917 8.54900 1397 ft 10 kts 270°
2026-04-30 13:38 47.45932 8.54696 1402 ft 11 kts 276°
2026-04-30 13:38 47.45941 8.54577 1399 ft 12 kts 276°
2026-04-30 13:38 47.45962 8.54286 1405 ft 17 kts 275°
2026-04-30 13:39 47.45989 8.53896 1397 ft 19 kts 276°
2026-04-30 13:39 47.45896 8.53812 1398 ft 12 kts 121°
2026-04-30 13:40 47.45888 8.53841 1395 ft 0 kts 98°
2026-04-30 13:40 47.45887 8.53858 1397 ft 17 kts 96°
2026-04-30 13:40 47.45847 8.54423 1402 ft 93 kts 96°
2026-04-30 13:41 47.45751 8.55735 1401 ft 158 kts 96°
2026-04-30 13:41 47.45607 8.57533 1651 ft 195 kts 97°
2026-04-30 13:41 47.45407 8.59663 2159 ft 220 kts 97°
2026-04-30 13:41 47.45263 8.62015 2732 ft 239 kts 90°
2026-04-30 13:42 47.45749 8.64383 3268 ft 244 kts 52°
2026-04-30 13:42 47.47098 8.65772 3807 ft 237 kts 14°
2026-04-30 13:42 47.50196 8.64637 4880 ft 244 kts 315°
2026-04-30 13:43 47.51085 8.62514 5394 ft 247 kts 283°
2026-04-30 13:43 47.51051 8.60005 5936 ft 253 kts 250°
2026-04-30 13:43 47.50173 8.57710 6541 ft 260 kts 234°
2026-04-30 13:43 47.49067 8.55534 7105 ft 268 kts 233°
2026-04-30 13:44 47.47934 8.53333 7664 ft 275 kts 233°